Location: Malvern Link
(52.1333°N, 2.3000°W)
Time: 04:56:37
(UTC+00:00)

SPROUT - Pass Details

Date: 07 July 2022
Orbit: 588 x 598 km, 97.9° (Epoch: 18 August)

Event Time Altitude Azimuth Distance (km) Brightness Sun altitude
Exits shadow 23:49:34 12° 120° (ESE) 1,815 ? -15.2°
Maximum altitude 23:52:50 28° 63° (ENE) 1,118 ? -15.2°
Drops below altitude 10° 23:56:25 10° 5° (N) 1,935 ? -15.3°
Sets 23:58:49 0° 354° (N) 2,843 ? -15.3°
